Date,TemperatureHighF,TemperatureAvgF,TemperatureLowF,DewpointHighF,DewpointAvgF,DewpointLowF,HumidityHigh,HumidityAvg,HumidityLow,PressureMaxIn,PressureMinIn,WindSpeedMaxMPH,WindSpeedAvgMPH,GustSpeedMaxMPH,PrecipitationSumIn
2013-12-1,69.5,50.8,38.0,46.6,42.1,37.0,98,76,39,30.34,30.22,3,0,7,0.01
2013-12-2,62.9,50.6,38.7,51.5,45.7,37.3,98,84,58,30.23,29.96,6,2,10,0.00
2013-12-3,53.7,47.5,34.7,52.9,37.0,24.1,97,68,45,29.95,29.84,7,1,13,0.00
2013-12-4,51.4,35.8,25.6,28.2,21.5,13.9,92,61,23,30.10,29.94,3,0,6,0.00
2013-12-5,49.4,33.4,22.3,23.0,18.7,13.5,88,60,24,30.18,30.09,2,0,4,0.00
2013-12-6,50.9,39.2,25.0,46.1,30.9,20.2,96,74,41,30.19,29.91,7,1,20,0.85
2013-12-7,46.5,40.6,27.8,44.3,30.3,23.6,95,69,42,30.25,29.92,6,2,11,0.07
2013-12-8,44.0,32.8,25.9,30.1,22.8,17.6,97,70,37,30.33,30.23,5,1,10,0.00
2013-12-9,50.5,36.7,26.3,26.4,19.9,8.7,91,54,30,30.43,30.31,4,1,8,0.00
2013-12-10,48.7,30.1,23.0,30.5,25.6,21.8,96,85,45,30.43,30.23,2,0,4,0.00
2013-12-11,55.7,37.9,26.2,33.6,28.8,24.5,95,73,35,30.26,30.19,3,0,5,0.00
2013-12-12,58.0,39.6,25.8,35.2,31.3,24.6,98,76,39,30.28,30.17,2,0,4,0.00
2013-12-13,62.9,41.4,29.5,38.6,32.5,27.2,98,75,29,30.34,30.24,2,0,6,0.00
2013-12-14,59.7,41.6,29.2,38.6,33.1,27.7,97,75,40,30.41,30.32,3,1,6,0.00
2013-12-15,60.9,41.3,28.1,39.7,33.4,26.8,97,77,42,30.38,30.25,3,0,5,0.01
2013-12-16,66.8,45.4,32.2,40.2,35.0,30.9,97,72,30,30.26,30.13,2,0,5,0.00
2013-12-17,63.4,45.6,35.2,42.9,38.2,33.2,96,78,45,30.20,30.04,2,0,5,0.00
2013-12-18,62.4,48.3,38.0,47.3,41.4,35.6,92,79,41,30.04,29.76,7,2,12,0.00
2013-12-19,59.3,47.8,35.1,45.8,31.5,19.5,97,59,29,29.93,29.72,4,1,9,0.00
2013-12-20,61.0,44.4,29.8,27.4,19.2,3.6,77,43,11,30.01,29.92,4,0,7,0.00
2013-12-21,62.0,45.7,33.8,43.0,33.6,26.0,94,66,31,30.09,29.97,3,0,6,0.00
2013-12-22,65.2,47.4,34.1,41.6,37.1,33.1,98,72,36,30.29,30.09,4,0,6,0.00
2013-12-23,60.7,44.6,33.1,41.5,37.2,31.8,97,77,46,30.39,30.29,3,0,5,0.00
2013-12-24,67.7,47.9,36.6,42.6,37.4,34.4,95,72,34,30.35,30.21,3,0,6,0.00
2013-12-25,63.5,44.9,32.1,44.0,37.5,30.3,97,78,44,30.31,30.21,3,0,5,0.00
2013-12-26,65.9,44.6,31.0,43.2,35.1,29.9,98,74,33,30.27,30.18,3,0,5,0.00
2013-12-27,57.7,42.9,31.3,43.9,36.8,29.5,96,80,56,30.26,30.13,3,0,5,0.00
2013-12-28,66.1,45.5,30.4,38.4,30.7,25.8,98,64,22,30.16,30.03,5,1,9,0.00
2013-12-29,63.0,50.3,36.0,32.3,26.1,16.0,79,42,19,30.19,30.09,5,1,8,0.00
2013-12-30,63.7,43.6,30.0,40.0,34.3,27.7,94,73,37,30.27,30.19,3,0,4,0.00
2013-12-31,61.9,43.8,33.0,38.3,33.4,29.1,94,70,33,30.28,30.16,3,0,7,0.00